Regional Weather Roundup
Issued by NWS

Home | Current Version | Previous Version | Graphics & Text | Print | Product List | Glossary On
Versions: 1 2 3 4 5 6 7 8 9 10 11 12 13 14 15 16 17 18 19 20 21 22 23 24 25 26 27
000
ASUS45 KSLC 231810
RWRUT

UTAH REGIONAL WEATHER ROUNDUP
NATIONAL WEATHER SERVICE SALT LAKE CITY UT
1200 PM MDT SAT SEP 23 2017

UTZ001>011-023>025-231900-

NORTHERN UTAH

CITY           SKY/WX    TMP DP  RH WIND       PRES   REMARKS
BRIGHAM CITY   CLOUDY    50  33  53 CALM      29.97F
HILL AFB       PTSUNNY   48  34  59 NE6       29.95F
LOGAN          CLOUDY    46  35  65 CALM      30.00S
OGDEN          CLOUDY    52  36  54 NE6       29.95F
SALT LAKE CITY PTSUNNY   52  40  63 NW7       29.95F
TOOELE VALLEY  CLOUDY    48  37  66 NW9       29.97F
WENDOVER       SUNNY     51  32  48 N10G18    29.99F
HEBER CITY     CLOUDY    45  32  61 CALM      29.94S
WEST JORDAN    CLOUDY    48  44  85 NW10      29.96S

$$

UTZ011>015-024>027-231900-

CENTRAL/NORTHEAST UTAH

CITY           SKY/WX    TMP DP  RH WIND       PRES   REMARKS
PROVO AIRPORT  CLOUDY    50  38  63 VRB5      29.95S
MOAB/CANYONLAN PTSUNNY   64  37  36 E8        29.79F
DELTA          MOSUNNY   46  36  66 CALM      29.95F
PRICE          SUNNY     58  29  33 MISG      29.84F
RICHFIELD      CLOUDY    45  36  70 NE8       29.96S
ROOSEVELT      CLOUDY    55  34  44 SE3       29.92S
VERNAL         CLOUDY    53  35  50 E5        29.90S

$$

UTZ013>016-019>022-027-231900-

SOUTHERN UTAH

CITY           SKY/WX    TMP DP  RH WIND       PRES   REMARKS
BRYCE CANYON   SUNNY     48  29  47 W8        29.90F
CEDAR CITY     CLOUDY    44  36  73 N6        29.94S
MILFORD        CLOUDY    43  37  79 N9        29.95S
ST GEORGE      PTCLDY    62  35  36 NW9       29.86S
HANKSVILLE     SUNNY     61  28  29 CALM      29.83F
KANAB          SUNNY     61  27  27 S6G13     29.89S
BLANDING         N/A     57  46  65 E13       29.95S

$$

REGIONAL REPORTS     COLORADO/ARIZONA

CITY           SKY/WX    TMP DP  RH WIND       PRES   REMARKS
CRAIG, CO      CLOUDY    51  40  65 S16G26    29.94S
GRAND JUNCTION CLOUDY    54  46  74 SE21G30   29.88S
RIFLE, CO      LGT RAIN  51  48  89 E7        29.95F
MONTROSE, CO   LGT RAIN  50  45  83 VRB7      29.97S
CORTEZ, CO     LGT RAIN  53  47  79 SE15G22   29.91F
PAGE, AZ       SUNNY     64  26  23 VRB3      29.80F
GRAND CANYON   SUNNY     57  14  18 SW16G25   29.91S
KINGMAN, AZ    SUNNY     66  33  29 VRB6      29.86S
FLAGSTAFF, AZ  SUNNY     55  15  20 SW20      29.92S

$$

REGIONAL REPORTS    NEVADA/IDAHO/WYOMING

CITY           SKY/WX    TMP DP  RH WIND       PRES   REMARKS
LAS VEGAS, NV  MOSUNNY   70  29  21 N18G25    29.85S
ELY, NY        CLOUDY    40  34  79 N12       29.99F WCI  33
ELKO, NV       CLOUDY    37  34  89 CALM      30.05S
POCATELLO, ID  PTSUNNY   45  35  68 W3        30.05F
BURLEY, ID     PTSUNNY   46  36  68 CALM      30.04S
FORT BRIDGER,  CLOUDY    42  40  92 NE7       29.99S
EVANSTON, WY   CLOUDY    39  34  82 N10       29.96F WCI  32
ROCK SPRINGS,  CLOUDY    41  39  93 E10       29.98R
KEMMERER, WY     N/A     41  32  70 NE5       29.98F

$$




USA.gov is the U.S. government's official web portal to all federal, state and local government web resources and services.